Location: Newark
(47.7394°N, 8.0008°E)
Time: 12:03:00
(UTC+00:00)

N. Korean satellite - Pass Details

Date: 23 December 2019
Orbit: 454 x 508 km, 97.2° (Epoch: 17 January)

Event Time Altitude Azimuth Distance (km) Brightness Sun altitude
Rises 05:42:25 0° 8° (N) 2,504 10.1 -14.6°
Reaches altitude 10° 05:44:30 10° 4° (N) 1,617 9.1 -14.3°
Maximum altitude 05:47:53 55° 286° (WNW) 558 6.5 -13.8°
Drops below altitude 10° 05:51:13 10° 208° (SSW) 1,590 9.1 -13.2°
Sets 05:53:15 0° 204° (SSW) 2,457 10.1 -12.9°
